#timestamp,LO_Frequency,Hit,StdDev 
1553724015.7,286046998.4,N
1553724035.6,286047001.1,N
1553724055.4,286047000.4,N
1553724075.3,286046998.6,N
1553724095.1,286047001.1,N
1553724096.0,286047001.1,N
1553724115.8,286046998.6,N
1553724135.7,286047001.1,N
1553724155.5,286046998.8,N
1553724175.3,286047000.9,N
1553724195.2,286046998.6,N
1553724215.0,286046998.2,N
1553724215.9,286046998.2,N
1553724235.8,286046999.0,N
1553724255.6,286046996.9,N
1553724275.4,286046998.8,N
1553724295.3,286046999.5,N
1553724315.1,286046999.2,N
1553724335.9,286046999.3,N
1553724355.7,286046999.6,N
1553724375.5,286046997.4,N
1553724395.4,286046996.6,Y
1553724415.2,286046998.4,P
1553724435.1,286046998.3,P
1553724436.0,286046998.3,P
1553724455.8,286046999.0,N
1553724475.6,286046998.2,Y
1553724495.5,286047000.2,P
1553724515.3,286047002.7,P
1553724535.1,286047002.3,N
1553724555.9,286046999.8,N
1553724575.7,286047002.8,N
1553724595.6,286047000.2,N
1553724615.4,286046999.7,N
1553724635.2,286047002.8,N
1553724655.1,286047000.2,N
1553724656.0,286047000.2,N
1553724675.8,286046999.8,N
1553724695.7,286047000.0,N
1553724715.5,286047000.5,N
1553724735.3,286047000.4,N
1553724755.2,286047001.0,N
1553724775.0,286046998.1,N
1553724775.9,286046998.1,N
1553724795.7,286046998.6,N
1553724815.6,286046998.2,N
1553724835.4,286046998.3,N
1553724855.3,286046999.8,N
1553724875.1,286047000.5,N
1553724876.0,286047000.5,N
1553724895.8,286047000.4,N
1553724915.7,286046999.9,N
1553724935.5,286047002.7,N
1553724955.3,286047002.3,N
1553724975.2,286047002.6,N
1553724995.0,286047002.6,N
1553724995.9,286047002.6,N
1553725015.8,286047002.7,N
1553725035.6,286046999.8,N
1553725055.4,286047001.5,N
1553725075.3,286047001.9,N
1553725095.1,286047002.7,N
1553725115.9,286047004.2,N
1553725135.7,286047002.2,N
1553725155.5,286047001.9,N
1553725175.4,286047002.5,N
1553725195.2,286047001.3,N
1553725215.0,286047002.0,N
1553725216.0,286047002.0,N
1553725235.8,286047003.2,N
1553725255.6,286047003.2,N
1553725275.5,286047003.9,N
1553725295.3,286047004.3,N
1553725315.1,286047002.4,N
1553725335.9,286047004.3,N
1553725355.7,286047002.2,N
1553725375.6,286047004.0,N
1553725395.4,286047005.9,Y
1553725415.2,286047004.1,P
1553725435.1,286047004.0,P
1553725436.0,286047004.0,P
1553725455.8,286047004.2,Y
1553725475.7,286046999.2,P
1553725495.5,286046997.0,N
1553725515.3,286046997.4,N
1553725535.2,286047001.1,N
1553725555.0,286046998.5,N
1553725555.9,286046998.5,N
1553725575.7,286046996.8,N
1553725595.6,286046997.1,N
1553725615.4,286046999.5,N
1553725635.3,286046997.9,N
1553725655.1,286046997.4,N
1553725656.0,286046997.4,N
1553725675.8,286046995.5,N
1553725695.7,286046999.6,N
1553725715.5,286046997.0,N
1553725735.3,286046999.6,N
1553725755.2,286046998.8,N
1553725775.0,286046998.1,N
1553725775.9,286046998.1,N
1553725795.8,286046999.1,N
1553725815.6,286046999.1,N
1553725835.4,286046999.6,N
1553725855.3,286046999.2,N
1553725875.1,286046999.5,N
1553725895.9,286046999.4,N
1553725915.7,286046999.3,N
1553725935.5,286046999.0,N
1553725955.4,286046999.5,N
1553725975.2,286046997.9,N
1553725995.0,286046996.5,N
1553725995.9,286046996.5,N
1553726015.8,286046996.7,N
1553726035.6,286046998.8,N
1553726055.5,286047001.2,N
1553726075.3,286046998.3,N
1553726095.1,286047000.6,N
1553726115.9,286047000.8,N
1553726135.7,286047001.1,N
1553726155.5,286047001.1,N
1553726175.4,286046998.6,N
1553726195.2,286046998.7,N
1553726215.1,286046999.3,N
1553726216.0,286046999.3,N
1553726235.8,286046999.3,N
1553726255.6,286046996.9,N
1553726275.5,286046998.4,N
1553726295.3,286047000.7,N
1553726315.1,286046998.3,N
1553726335.9,286047000.8,N
1553726355.7,286047000.4,N
1553726375.6,286047000.9,N
1553726395.4,286046998.9,N
1553726415.2,286046999.4,N
1553726435.1,286046998.1,N
1553726436.0,286046998.1,N
1553726455.8,286047000.7,N
1553726475.7,286046998.6,N
1553726495.5,286046998.7,N
1553726515.3,286046998.5,N
1553726535.2,286047000.7,N
1553726555.9,286046999.9,N
1553726575.7,286047000.6,N
1553726595.6,286047000.6,N
1553726615.4,286047000.5,N
1553726635.3,286046998.3,N
1553726655.1,286047001.1,N
1553726656.0,286047001.1,N
1553726675.8,286046998.7,N
1553726695.7,286047001.1,N
1553726715.5,286046998.1,N
1553726735.4,286047000.0,N
1553726755.2,286047000.4,N
1553726775.0,286047002.3,N
1553726775.9,286047002.3,N
1553726795.8,286047002.7,N
1553726815.6,286047000.3,N
1553726835.4,286047002.8,N
1553726855.3,286046998.5,N
1553726875.1,286046998.5,N
1553726895.9,286046999.0,N
1553726915.7,286046998.2,N
1553726935.5,286046999.0,N
1553726955.4,286046997.0,N
1553726975.2,286046999.0,N
1553726995.0,286046999.2,N
1553726996.0,286046999.2,N
1553727015.8,286046996.6,N
1553727035.6,286046998.5,N
1553727055.5,286046998.7,N
1553727075.3,286046998.6,N
1553727095.1,286047001.1,N
1553727115.9,286047000.7,N
1553727135.7,286046998.5,N
1553727155.6,286046998.6,N
1553727175.4,286047001.1,N
1553727195.2,286046998.5,N
1553727215.1,286046999.4,N
1553727216.0,286046999.4,N
1553727235.8,286047000.8,N
1553727255.6,286047000.8,N
1553727275.5,286047002.3,N
1553727295.3,286047002.8,N
1553727315.2,286047000.0,N
1553727335.9,286046999.9,N
1553727355.7,286047000.2,N
1553727375.6,286046999.7,N
1553727395.4,286047002.0,N
1553727415.3,286047002.0,N
1553727435.1,286047001.8,N
1553727436.0,286047001.8,N
1553727455.8,286047002.1,N
1553727475.7,286047002.3,N
1553727495.5,286047000.2,N
1553727515.3,286047001.2,N
1553727535.2,286047000.1,N
1553727555.0,286047001.1,N
1553727555.9,286047001.1,N
1553727575.8,286047001.0,N
1553727595.6,286047000.6,N
